Wind_Speed
49 49 49 50 49 49 48 48 47 47 46 46 45 45 44 44 44 43 43 43 43 42 41 41 40 40 40 41 41 40 41 41 41 40 41 41 41 40 41 41 41 41 41
49 49 49 50 50 49 49 49 48 48 48 47 46 46 46 45 45 44 44 44 43 43 42 42 42 41 41 42 42 42 42 42 43 42 42 43 43 43 43 43 43 43 43
49 49 49 50 50 50 49 49 49 49 49 48 48 47 47 47 46 45 45 44 45 44 44 44 43 43 43 43 43 43 43 44 44 45 44 45 45 46 46 45 45 44 43
49 49 50 50 50 50 50 50 50 50 49 49 48 48 48 47 47 47 46 46 46 46 45 45 44 44 44 44 44 44 45 45 45 45 46 46 46 47 47 46 46 45 45
50 50 50 50 50 50 50 50 50 50 50 50 49 49 48 47 48 48 48 47 47 47 46 46 46 45 45 45 45 45 45 46 46 47 47 47 47 47 47 47 48 47 47
51 50 49 49 49 50 50 50 50 50 49 49 49 49 49 49 49 49 49 48 47 47 47 47 47 46 46 47 47 47 47 47 47 47 47 47 46 47 48 48 48 48 48
50 51 51 50 50 49 50 50 50 51 50 50 49 49 49 50 49 49 49 49 50 49 49 48 48 48 48 48 48 47 47 47 48 48 47 47 47 47 48 48 49 49 48
49 50 50 50 50 50 50 50 51 50 50 50 50 50 50 50 50 50 50 50 50 50 50 49 49 48 48 48 47 47 47 47 48 47 47 47 48 48 48 49 49 49 50
49 49 49 50 50 50 50 50 50 50 50 50 50 50 50 50 50 50 50 50 50 50 50 50 49 49 48 48 48 48 47 47 47 47 47 47 47 47 47 47 48 48 48
47 48 49 49 49 50 50 50 49 50 50 49 49 50 50 50 50 50 50 50 50 50 49 49 48 48 48 48 48 47 47 46 46 46 47 47 47 47 47 47 47 47 47
45 46 47 47 47 48 49 49 49 49 49 49 49 50 50 50 50 50 50 50 50 50 49 49 48 48 48 47 47 47 47 47 47 48 48 48 48 48 48 48 48 48 48
42 43 44 44 45 46 46 47 48 48 48 48 48 48 48 48 49 49 50 50 50 50 50 49 49 49 49 48 48 48 49 49 49 49 49 49 49 48 48 49 48 48 49
41 41 42 42 43 44 45 46 46 46 46 46 46 46 46 47 47 48 48 49 49 49 49 48 48 49 49 49 49 50 50 50 50 49 49 49 50 50 50 50 49 49 49
39 39 40 40 41 41 41 43 44 45 45 45 46 46 46 46 46 46 47 48 48 48 48 48 48 48 49 49 49 49 50 49 49 49 50 50 50 50 50 50 50 50 50
39 39 39 39 40 40 40 40 41 42 43 44 44 45 45 45 45 46 46 46 46 47 47 47 47 47 47 47 47 47 47 47 48 49 50 50 50 50 51 51 51 51 51
38 38 39 39 40 40 40 40 41 41 41 42 43 43 43 43 44 45 46 46 45 45 45 46 46 46 46 46 46 46 46 47 48 49 50 50 51 51 51 51 52 52 52
37 38 38 39 39 40 40 40 41 41 41 41 42 42 42 43 43 44 44 44 44 44 45 45 45 45 45 45 46 46 46 46 47 48 49 49 50 50 50 50 51 51 50
36 37 37 38 39 39 40 40 41 41 41 41 41 42 42 42 43 43 43 44 44 44 45 45 45 45 45 45 45 45 45 45 46 46 47 47 48 48 48 49 50 50 50
35 36 36 37 38 38 39 39 40 40 40 41 41 41 42 43 43 43 43 43 43 44 44 44 44 44 44 44 44 44 44 44 45 45 45 46 47 47 48 48 49 49 50
33 34 35 35 35 36 37 37 37 38 39 39 39 40 40 41 42 42 42 42 42 43 43 43 43 43 43 43 44 44 44 44 45 45 45 45 46 47 47 48 48 49 49
31 32 33 33 33 33 34 34 35 36 37 37 37 38 38 39 40 41 42 42 42 42 42 41 41 42 42 42 43 44 44 44 45 45 46 46 46 47 47 47 47 47 47
28 29 30 30 31 31 31 32 32 33 34 35 36 36 37 37 38 39 39 40 40 40 41 41 41 42 42 43 43 44 44 44 44 45 46 46 47 47 47 46 45 45 45
26 27 28 29 29 30 30 30 31 32 33 34 34 34 34 35 36 37 37 38 38 39 39 40 41 42 42 43 43 43 44 44 45 46 46 46 46 45 44 44 44 44 43
24 25 26 27 28 28 29 29 30 30 31 31 31 32 32 33 34 34 36 37 38 39 39 40 41 42 42 42 43 43 43 44 44 44 44 44 43 43 42 42 42 42 42
24 24 25 25 26 27 27 28 28 29 29 29 29 30 31 32 33 34 35 36 37 38 39 40 41 41 41 42 42 42 41 41 41 41 41 41 41 41 41 40 40 39 39
24 24 24 25 25 26 26 26 27 27 28 28 29 30 30 32 33 34 35 36 36 37 37 38 38 39 39 39 39 38 38 38 38 38 38 38 38 39 39 38 38 37 37
Wind_Direction
235 236 236 236 237 238 240 241 242 244 245 246 247 248 249 250 251 252 253 254 255 257 258 259 260 261 262 261 262 262 262 263 264 265 265 267 268 269 271 274 275 276 277
235 236 236 237 237 238 240 241 242 243 244 245 246 247 248 249 250 251 253 254 255 257 258 258 260 260 262 262 263 263 263 263 264 264 265 265 267 269 271 273 274 275 276
235 236 236 237 238 239 240 241 242 243 244 245 246 247 248 248 250 251 253 253 255 256 257 258 259 260 261 262 262 263 264 264 264 265 266 267 268 269 271 272 274 275 275
236 236 237 237 238 239 240 241 242 243 245 246 246 247 248 249 250 251 252 253 255 257 258 258 259 260 261 262 262 263 264 265 265 267 268 268 268 269 271 272 273 274 275
236 236 237 237 238 239 240 241 242 243 244 246 246 247 248 249 250 252 253 254 255 257 257 258 258 260 261 262 262 263 264 265 267 268 268 269 269 269 271 272 273 274 275
236 236 237 238 239 240 241 242 242 243 244 245 247 248 249 250 251 252 253 254 255 257 258 258 259 260 261 263 263 264 266 267 268 268 268 269 269 270 271 272 272 273 275
237 238 238 239 239 240 241 242 243 244 244 245 247 248 249 251 252 253 253 254 255 257 258 259 260 261 262 264 264 265 266 267 267 268 269 270 270 270 271 272 273 274 275
237 238 239 240 241 241 242 242 243 244 245 246 247 248 249 250 252 254 254 255 256 257 258 260 260 261 263 264 264 264 265 267 268 269 270 270 270 271 272 272 274 275 276
238 238 239 240 241 241 242 242 243 244 245 246 247 248 249 251 252 253 254 255 256 257 258 259 260 261 263 263 263 264 265 267 268 268 269 270 270 271 271 273 274 275 276
238 239 240 240 241 242 242 243 244 245 246 246 247 248 249 250 251 252 253 254 255 256 257 259 260 261 262 262 262 263 265 266 267 268 269 270 271 272 273 274 276 276 277
238 238 239 240 241 242 242 243 244 245 246 246 247 248 249 250 251 252 253 254 254 255 257 258 260 261 260 261 261 262 264 266 267 268 269 270 271 273 274 275 276 277 277
237 237 238 240 241 242 242 243 244 245 246 247 248 249 250 251 252 253 254 254 255 255 256 258 259 260 261 261 262 263 264 266 267 268 269 270 271 273 274 275 276 276 277
236 237 239 240 241 242 243 244 244 246 247 247 248 248 250 251 252 252 253 254 255 255 256 257 258 259 261 261 263 264 265 266 267 268 269 270 272 273 274 274 276 277 278
236 237 239 239 239 241 243 244 245 245 247 248 248 249 250 250 251 251 252 253 254 256 257 258 258 259 260 262 263 264 266 267 269 270 271 271 272 273 275 275 276 277 277
237 238 238 239 239 241 243 244 245 245 247 248 249 249 250 250 249 250 251 253 254 255 257 257 258 259 261 262 263 265 266 268 270 271 272 272 272 273 274 274 275 276 277
238 239 240 240 241 243 244 245 246 247 248 249 250 250 250 250 249 249 251 252 254 255 256 257 258 260 261 263 264 266 268 269 271 272 272 272 273 274 274 274 275 276 277
241 241 242 242 244 245 246 247 248 248 250 250 250 249 249 249 250 250 251 252 253 254 255 257 258 260 261 263 265 266 268 270 272 273 273 273 273 274 274 274 275 276 277
242 243 244 245 245 246 247 248 249 249 250 251 251 250 250 250 251 251 252 253 254 254 255 256 258 260 261 263 264 266 268 270 271 273 274 274 275 275 276 276 276 276 277
243 243 244 245 246 247 249 250 250 250 250 250 251 251 251 251 251 251 253 253 254 254 255 257 258 260 262 263 265 267 269 270 272 273 275 276 276 277 277 277 278 277 277
242 242 243 244 245 247 248 249 249 249 249 249 250 251 252 252 251 252 253 253 254 254 255 257 259 261 262 264 265 267 269 271 272 274 276 277 278 279 279 279 279 278 278
240 241 242 243 243 244 245 247 248 247 247 247 248 250 251 251 251 251 252 253 254 255 256 258 259 261 263 264 266 268 270 272 274 275 277 278 279 280 280 281 281 280 280
239 239 240 241 242 243 244 246 247 248 248 248 248 249 250 251 251 251 252 254 255 257 258 260 261 263 264 265 267 269 271 273 274 276 277 279 279 280 280 281 281 282 282
240 240 241 242 243 243 245 246 247 248 250 250 250 250 251 252 252 252 253 255 256 258 260 261 263 264 265 267 268 270 271 273 275 276 277 278 279 280 280 280 281 282 282
241 241 242 243 243 244 245 247 248 249 250 250 250 251 252 253 253 254 255 256 257 259 261 262 263 265 266 268 270 271 272 274 275 276 277 277 277 278 279 281 281 281 281
242 241 242 243 244 245 247 248 249 249 250 250 251 252 254 256 256 257 257 258 259 260 262 264 265 267 268 269 270 271 272 273 274 275 276 276 277 278 279 280 281 281 282
241 242 243 245 246 246 247 249 249 250 251 252 254 255 257 258 258 259 260 261 263 264 265 267 268 268 268 269 269 270 271 272 274 275 276 276 277 278 279 279 280 280 281
Height
5665 5670 5675 5680 5685 5690 5694 5698 5702 5706 5709 5712 5716 5719 5722 5725 5728 5730 5733 5735 5737 5739 5741 5743 5744 5745 5746 5746 5747 5748 5749 5750 5752 5753 5753 5754 5753 5754 5754 5753 5752 5751 5750
5654 5659 5664 5669 5673 5678 5683 5687 5691 5694 5698 5701 5705 5708 5711 5714 5717 5720 5722 5725 5727 5729 5731 5732 5733 5734 5735 5736 5737 5738 5739 5740 5741 5742 5743 5743 5743 5743 5743 5742 5742 5741 5740
5642 5647 5652 5657 5662 5666 5671 5675 5679 5683 5686 5690 5693 5697 5700 5703 5706 5709 5712 5714 5716 5718 5720 5721 5723 5724 5725 5726 5727 5728 5728 5729 5730 5731 5732 5732 5732 5732 5732 5731 5730 5729 5728
5630 5635 5641 5645 5650 5655 5659 5663 5667 5671 5674 5678 5682 5685 5688 5691 5694 5697 5700 5703 5705 5707 5708 5710 5711 5713 5714 5715 5716 5717 5717 5718 5719 5719 5720 5720 5720 5720 5720 5719 5719 5718 5717
5618 5624 5629 5633 5638 5642 5647 5651 5655 5659 5662 5666 5669 5672 5676 5679 5682 5685 5688 5690 5693 5695 5697 5698 5700 5701 5702 5703 5705 5705 5706 5707 5707 5708 5708 5708 5708 5708 5708 5707 5706 5706 5705
5606 5612 5617 5621 5626 5630 5635 5639 5643 5646 5650 5653 5657 5660 5664 5667 5670 5673 5675 5678 5680 5683 5685 5686 5688 5689 5691 5692 5693 5693 5694 5695 5695 5696 5696 5696 5696 5696 5695 5694 5694 5693 5693
5594 5600 5604 5609 5614 5618 5622 5626 5630 5634 5638 5641 5644 5648 5652 5655 5657 5660 5663 5665 5668 5670 5672 5674 5676 5677 5678 5679 5680 5681 5682 5682 5683 5684 5684 5684 5683 5683 5682 5682 5681 5680 5680
5582 5587 5592 5597 5601 5606 5610 5614 5618 5621 5625 5629 5632 5636 5639 5642 5645 5647 5650 5652 5655 5657 5659 5661 5663 5664 5666 5667 5668 5669 5670 5670 5671 5671 5671 5671 5670 5669 5669 5669 5668 5667 5666
5570 5575 5579 5584 5589 5593 5597 5601 5605 5609 5613 5616 5619 5623 5626 5629 5632 5634 5637 5639 5642 5644 5646 5648 5650 5651 5653 5654 5655 5657 5658 5658 5658 5658 5658 5658 5657 5657 5656 5655 5655 5654 5653
5558 5562 5567 5571 5576 5580 5585 5588 5592 5596 5600 5603 5607 5610 5613 5616 5619 5621 5624 5626 5629 5632 5633 5635 5637 5639 5640 5641 5642 5644 5645 5645 5645 5645 5645 5645 5645 5644 5643 5642 5642 5640 5639
5546 5550 5554 5559 5563 5567 5572 5576 5580 5583 5587 5591 5594 5597 5600 5603 5606 5608 5611 5614 5616 5618 5621 5623 5624 5626 5627 5628 5629 5631 5632 5632 5632 5633 5633 5633 5632 5632 5631 5630 5628 5627 5626
5535 5539 5543 5547 5551 5555 5559 5563 5567 5571 5574 5577 5581 5584 5587 5590 5593 5595 5598 5601 5603 5605 5608 5610 5612 5613 5614 5615 5616 5618 5618 5619 5619 5620 5620 5619 5619 5619 5618 5617 5615 5614 5613
5524 5528 5532 5535 5539 5543 5547 5551 5555 5558 5561 5565 5568 5571 5574 5577 5580 5582 5585 5587 5590 5592 5595 5596 5598 5600 5601 5602 5603 5604 5605 5605 5605 5606 5606 5606 5605 5605 5604 5603 5602 5600 5599
5514 5518 5521 5525 5529 5532 5536 5539 5542 5546 5549 5552 5556 5559 5562 5564 5567 5569 5572 5574 5577 5579 5581 5583 5585 5586 5587 5589 5590 5590 5591 5592 5592 5592 5592 5592 5591 5591 5590 5589 5588 5586 5585
5504 5508 5512 5515 5518 5522 5525 5528 5531 5534 5537 5540 5543 5546 5549 5551 5554 5556 5559 5561 5564 5566 5568 5570 5572 5573 5575 5576 5577 5577 5578 5578 5578 5578 5578 5578 5577 5576 5575 5574 5573 5572 5571
5495 5498 5502 5505 5508 5511 5514 5517 5519 5522 5525 5527 5530 5533 5536 5539 5541 5543 5546 5548 5551 5553 5555 5557 5559 5561 5562 5563 5564 5564 5564 5564 5564 5564 5563 5563 5562 5562 5561 5559 5558 5557 5556
5485 5488 5491 5494 5497 5500 5503 5506 5509 5511 5513 5516 5518 5521 5524 5527 5529 5531 5534 5536 5538 5540 5542 5544 5546 5548 5549 5550 5551 5551 5551 5551 5550 5550 5549 5548 5547 5547 5545 5544 5543 5542 5541
5475 5478 5481 5484 5487 5489 5492 5495 5497 5500 5502 5504 5507 5509 5512 5514 5517 5519 5522 5524 5526 5527 5530 5532 5534 5535 5536 5537 5537 5538 5538 5538 5537 5536 5535 5534 5533 5532 5531 5530 5528 5527 5526
5465 5468 5471 5474 5476 5479 5481 5483 5486 5488 5491 5493 5495 5497 5500 5502 5505 5507 5509 5511 5513 5515 5517 5519 5521 5522 5523 5524 5525 5525 5525 5525 5524 5523 5522 5520 5519 5518 5517 5515 5514 5512 5511
5456 5459 5461 5464 5466 5468 5471 5473 5475 5477 5480 5482 5484 5486 5488 5490 5493 5495 5497 5499 5501 5503 5505 5507 5508 5509 5510 5511 5512 5512 5512 5512 5511 5510 5509 5507 5505 5504 5502 5501 5499 5497 5496
5447 5449 5452 5454 5456 5459 5461 5463 5465 5467 5469 5472 5474 5476 5477 5479 5481 5483 5485 5487 5489 5491 5493 5495 5496 5497 5497 5498 5498 5499 5498 5498 5497 5496 5495 5494 5492 5490 5488 5487 5485 5483 5481
5438 5441 5443 5445 5447 5450 5452 5454 5455 5457 5459 5461 5463 5465 5467 5468 5470 5472 5474 5476 5478 5479 5481 5482 5483 5484 5485 5485 5485 5485 5485 5484 5484 5483 5481 5480 5478 5476 5474 5473 5471 5469 5467
5431 5433 5435 5437 5439 5441 5443 5444 5446 5448 5450 5452 5454 5455 5457 5458 5460 5461 5463 5465 5466 5467 5468 5469 5470 5471 5471 5472 5472 5472 5472 5471 5470 5469 5468 5466 5464 5462 5461 5459 5457 5456 5454
5423 5425 5427 5429 5431 5432 5434 5436 5438 5439 5441 5443 5444 5446 5447 5448 5450 5451 5452 5453 5454 5455 5456 5457 5457 5458 5458 5458 5458 5458 5458 5457 5456 5455 5454 5452 5451 5449 5448 5446 5445 5443 5441
5416 5418 5419 5421 5423 5425 5426 5428 5429 5431 5432 5434 5435 5436 5438 5439 5439 5440 5441 5442 5443 5443 5444 5445 5445 5445 5445 5445 5445 5445 5444 5443 5442 5442 5440 5439 5438 5437 5435 5434 5432 5431 5429
5409 5410 5412 5414 5415 5417 5418 5420 5421 5422 5424 5425 5426 5427 5428 5428 5429 5429 5430 5430 5431 5432 5432 5432 5432 5432 5433 5432 5432 5432 5431 5431 5430 5429 5428 5427 5426 5425 5423 5422 5421 5419 5418